| time (UTC) | temp C | wind direction | speed KPH | gust KPH | rain 1hr cm | rain 24hr cm | rain mn cm | humidity % | barometer mb |
| 20260504045532 | 10 | 234 | 4.8 | 11.3 | 0.00 | 0.00 | 0.00 | 40 | 1009.6 |
| 20260504045032 | 10 | 214 | 4.8 | 14.5 | 0.00 | 0.00 | 0.00 | 39 | 1009.7 |
| 20260504044531 | 10 | 236 | 6.4 | 14.5 | 0.00 | 0.00 | 0.00 | 39 | 1009.6 |
| 20260504044033 | 11 | 251 | 6.4 | 12.9 | 0.00 | 0.00 | 0.00 | 39 | 1009.6 |
| 20260504043530 | 10 | 248 | 4.8 | 16.1 | 0.00 | 0.00 | 0.00 | 39 | 1009.6 |
| 20260504043029 | 11 | 240 | 6.4 | 16.1 | 0.00 | 0.00 | 0.00 | 39 | 1009.6 |
| 20260504042529 | 11 | 240 | 4.8 | 11.3 | 0.00 | 0.00 | 0.00 | 39 | 1009.7 |
| 20260504042027 | 11 | 250 | 4.8 | 11.3 | 0.00 | 0.00 | 0.00 | 39 | 1009.6 |
| 20260504041538 | 11 | 245 | 4.8 | 11.3 | 0.00 | 0.00 | 0.00 | 39 | 1009.7 |
| 20260504041025 | 11 | 235 | 4.8 | 12.9 | 0.00 | 0.00 | 0.00 | 39 | 1009.7 |
| 20260504040524 | 11 | 221 | 4.8 | 14.5 | 0.00 | 0.00 | 0.00 | 39 | 1009.7 |
| 20260504040024 | 11 | 228 | 6.4 | 14.5 | 0.00 | 0.00 | 0.00 | 39 | 1009.8 |
| 20260504035523 | 11 | 240 | 8.0 | 19.3 | 0.00 | 0.00 | 0.00 | 39 | 1009.8 |
| 20260504035023 | 11 | 236 | 11.3 | 19.3 | 0.00 | 0.00 | 0.00 | 38 | 1009.7 |
| 20260504034523 | 11 | 234 | 8.0 | 17.7 | 0.00 | 0.00 | 0.00 | 39 | 1009.7 |
| 20260504034021 | 11 | 242 | 6.4 | 25.7 | 0.00 | 0.00 | 0.00 | 39 | 1009.7 |
| 20260504033521 | 11 | 241 | 12.9 | 25.7 | 0.00 | 0.00 | 0.00 | 39 | 1009.6 |
| 20260504033021 | 11 | 257 | 8.0 | 19.3 | 0.00 | 0.00 | 0.00 | 40 | 1009.7 |
| 20260504032522 | 11 | 250 | 9.7 | 19.3 | 0.00 | 0.00 | 0.00 | 40 | 1009.8 |
| 20260504032024 | 11 | 259 | 8.0 | 20.9 | 0.00 | 0.00 | 0.00 | 40 | 1009.7 |
| 20260504031522 | 11 | 190 | 6.4 | 16.1 | 0.00 | 0.00 | 0.00 | 39 | 1009.8 |
| 20260504031021 | 11 | 277 | 8.0 | 19.3 | 0.00 | 0.00 | 0.00 | 39 | 1009.7 |
| 20260504030521 | 11 | 216 | 4.8 | 19.3 | 0.00 | 0.00 | 0.00 | 39 | 1009.7 |
| 20260504030021 | 11 | 245 | 8.0 | 20.9 | 0.00 | 0.00 | 0.00 | 39 | 1009.7 |
| 20260504025520 | 11 | 233 | 11.3 | 20.9 | 0.00 | 0.00 | 0.00 | 39 | 1009.7 |
| 20260504025020 | 11 | 242 | 9.7 | 24.1 | 0.00 | 0.00 | 0.00 | 39 | 1009.7 |
| 20260504024520 | 11 | 239 | 12.9 | 24.1 | 0.00 | 0.00 | 0.00 | 39 | 1009.7 |
| 20260504024020 | 11 | 264 | 14.5 | 24.1 | 0.00 | 0.00 | 0.00 | 39 | 1009.8 |
| 20260504023519 | 11 | 270 | 14.5 | 25.7 | 0.00 | 0.00 | 0.00 | 39 | 1009.9 |
| 20260504023020 | 12 | 233 | 14.5 | 32.2 | 0.00 | 0.00 | 0.00 | 38 | 1010.0 |
| 20260504022522 | 12 | 276 | 14.5 | 35.4 | 0.00 | 0.00 | 0.00 | 38 | 1009.9 |
| 20260504022018 | 12 | 245 | 17.7 | 30.6 | 0.00 | 0.00 | 0.00 | 38 | 1010.0 |
| 20260504021518 | 12 | 270 | 12.9 | 29.0 | 0.00 | 0.00 | 0.00 | 38 | 1010.1 |
| 20260504021018 | 12 | 233 | 16.1 | 37.0 | 0.00 | 0.00 | 0.00 | 37 | 1010.1 |
| 20260504020518 | 12 | 248 | 12.9 | 33.8 | 0.00 | 0.00 | 0.00 | 38 | 1010.1 |
| 20260504020031 | 12 | 265 | 11.3 | 33.8 | 0.00 | 0.00 | 0.00 | 37 | 1010.1 |
| 20260504015518 | 11 | 269 | 11.3 | 17.7 | 0.00 | 0.00 | 0.00 | 38 | 1010.2 |
| 20260504015018 | 11 | 271 | 8.0 | 20.9 | 0.00 | 0.00 | 0.00 | 38 | 1010.2 |
| 20260504014521 | 11 | 295 | 8.0 | 22.5 | 0.00 | 0.00 | 0.00 | 39 | 1010.1 |
| 20260504014019 | 11 | 259 | 9.7 | 20.9 | 0.00 | 0.00 | 0.00 | 38 | 1010.2 |
| 20260504013517 | 11 | 255 | 11.3 | 24.1 | 0.00 | 0.00 | 0.00 | 38 | 1010.0 |
| 20260504013017 | 11 | 284 | 14.5 | 24.1 | 0.00 | 0.00 | 0.00 | 38 | 1010.0 |
| 20260504012517 | 11 | 255 | 14.5 | 35.4 | 0.00 | 0.00 | 0.00 | 39 | 1010.1 |
| 20260504012118 | 11 | 285 | 11.3 | 35.4 | 0.00 | 0.00 | 0.00 | 39 | 1010.2 |
| 20260504011517 | 11 | 248 | 17.7 | 32.2 | 0.00 | 0.00 | 0.00 | 38 | 1010.2 |
| 20260504011016 | 11 | 268 | 14.5 | 38.6 | 0.00 | 0.00 | 0.00 | 38 | 1010.3 |
| 20260504010516 | 11 | 219 | 16.1 | 38.6 | 0.00 | 0.00 | 0.00 | 39 | 1010.2 |
| 20260504010016 | 11 | 278 | 11.3 | 24.1 | 0.00 | 0.00 | 0.00 | 40 | 1010.3 |
| 20260504005515 | 11 | 300 | 12.9 | 30.6 | 0.00 | 0.00 | 0.00 | 40 | 1010.3 |
| 20260504005015 | 11 | 283 | 12.9 | 33.8 | 0.00 | 0.00 | 0.00 | 41 | 1010.4 |
| 20260504004516 | 11 | 269 | 16.1 | 35.4 | 0.00 | 0.00 | 0.00 | 40 | 1010.5 |
| 20260504004014 | 11 | 278 | 22.5 | 41.8 | 0.00 | 0.00 | 0.00 | 40 | 1010.5 |
| 20260504003514 | 11 | 274 | 20.9 | 41.8 | 0.00 | 0.00 | 0.00 | 37 | 1010.5 |
| 20260504003014 | 11 | 289 | 12.9 | 24.1 | 0.00 | 0.00 | 0.00 | 36 | 1010.4 |
| 20260504002514 | 11 | 276 | 16.1 | 32.2 | 0.00 | 0.00 | 0.00 | 36 | 1010.3 |
| 20260504002015 | 11 | 266 | 12.9 | 29.0 | 0.00 | 0.00 | 0.00 | 35 | 1010.2 |
| 20260504001522 | 11 | 285 | 12.9 | 32.2 | 0.00 | 0.00 | 0.00 | 35 | 1010.1 |
| 20260504001014 | 11 | 239 | 11.3 | 29.0 | 0.00 | 0.00 | 0.00 | 36 | 1010.0 |
| 20260504000515 | 11 | 289 | 14.5 | 29.0 | 0.00 | 0.00 | 0.00 | 35 | 1010.1 |
| 20260504000012 | 11 | 259 | 9.7 | 33.8 | 0.00 | 0.00 | 0.00 | 36 | 1010.1 |
| 20260503235512 | 11 | 288 | 16.1 | 33.8 | 0.00 | 0.00 | 0.00 | 36 | 1010.2 |
| 20260503235012 | 11 | 269 | 16.1 | 40.2 | 0.00 | 0.00 | 0.00 | 36 | 1010.2 |
| 20260503234512 | 11 | 317 | 19.3 | 40.2 | 0.00 | 0.00 | 0.00 | 36 | 1010.3 |
| 20260503234013 | 11 | 261 | 14.5 | 37.0 | 0.00 | 0.00 | 0.00 | 36 | 1010.5 |
| 20260503233512 | 12 | 262 | 16.1 | 37.0 | 0.00 | 0.00 | 0.00 | 35 | 1010.3 |
| 20260503233018 | 12 | 250 | 16.1 | 43.5 | 0.00 | 0.00 | 0.00 | 35 | 1010.2 |
| 20260503232514 | 12 | 297 | 20.9 | 43.5 | 0.00 | 0.00 | 0.00 | 34 | 1010.1 |
| 20260503232011 | 12 | 290 | 12.9 | 25.7 | 0.00 | 0.00 | 0.00 | 37 | 1010.1 |
| 20260503231512 | 12 | 275 | 11.3 | 37.0 | 0.00 | 0.00 | 0.00 | 36 | 1010.0 |
| 20260503231011 | 12 | 279 | 17.7 | 41.8 | 0.00 | 0.00 | 0.00 | 34 | 1009.9 |
| 20260503230513 | 12 | 267 | 17.7 | 41.8 | 0.00 | 0.00 | 0.00 | 33 | 1010.0 |
| 20260503230025 | 12 | 273 | 12.9 | 37.0 | 0.00 | 0.00 | 0.00 | 32 | 1009.9 |
| 20260503225509 | 12 | 242 | 14.5 | 30.6 | 0.00 | 0.00 | 0.00 | 31 | 1009.7 |
| 20260503225009 | 12 | 271 | 17.7 | 30.6 | 0.00 | 0.00 | 0.00 | 30 | 1009.8 |
| 20260503224509 | 12 | 262 | 9.7 | 25.7 | 0.00 | 0.00 | 0.00 | 30 | 1009.8 |
| 20260503224011 | 12 | 274 | 12.9 | 33.8 | 0.00 | 0.00 | 0.00 | 31 | 1009.8 |
| 20260503223511 | 12 | 299 | 16.1 | 33.8 | 0.00 | 0.00 | 0.00 | 30 | 1009.8 |
| 20260503223009 | 12 | 266 | 17.7 | 29.0 | 0.00 | 0.00 | 0.00 | 31 | 1009.9 |
| 20260503222509 | 12 | 311 | 12.9 | 29.0 | 0.00 | 0.00 | 0.00 | 31 | 1009.9 |
| 20260503222007 | 12 | 285 | 12.9 | 29.0 | 0.00 | 0.00 | 0.00 | 31 | 1009.8 |
| 20260503221508 | 12 | 330 | 14.5 | 29.0 | 0.00 | 0.00 | 0.00 | 30 | 1009.8 |
| 20260503221007 | 12 | 292 | 11.3 | 24.1 | 0.00 | 0.00 | 0.00 | 32 | 1009.8 |
| 20260503220507 | 12 | 287 | 12.9 | 24.1 | 0.00 | 0.00 | 0.00 | 32 | 1009.9 |
| 20260503220008 | 12 | 318 | 9.7 | 30.6 | 0.00 | 0.00 | 0.00 | 32 | 1009.9 |
| 20260503215507 | 12 | 345 | 12.9 | 30.6 | 0.00 | 0.00 | 0.00 | 30 | 1009.9 |
| 20260503215006 | 12 | 305 | 14.5 | 25.7 | 0.00 | 0.00 | 0.00 | 31 | 1009.9 |
| 20260503214519 | 13 | 333 | 16.1 | 29.0 | 0.00 | 0.00 | 0.00 | 30 | 1009.8 |
| 20260503214010 | 13 | 275 | 16.1 | 30.6 | 0.00 | 0.00 | 0.00 | 30 | 1009.9 |
| 20260503213505 | 13 | 283 | 11.3 | 30.6 | 0.00 | 0.00 | 0.00 | 31 | 1009.8 |
| 20260503213005 | 13 | 283 | 11.3 | 29.0 | 0.00 | 0.00 | 0.00 | 29 | 1009.8 |
| 20260503212508 | 13 | 283 | 12.9 | 30.6 | 0.00 | 0.00 | 0.00 | 31 | 1009.7 |
| 20260503212004 | 13 | 282 | 14.5 | 30.6 | 0.00 | 0.00 | 0.00 | 30 | 1009.7 |
| 20260503211504 | 13 | 275 | 12.9 | 22.5 | 0.00 | 0.00 | 0.00 | 32 | 1009.7 |
| 20260503211002 | 13 | 311 | 11.3 | 20.9 | 0.00 | 0.00 | 0.00 | 33 | 1009.7 |
| 20260503210502 | 12 | 255 | 8.0 | 14.5 | 0.00 | 0.00 | 0.00 | 33 | 1009.9 |
| 20260503210001 | 12 | 280 | 8.0 | 14.5 | 0.00 | 0.00 | 0.00 | 32 | 1009.8 |
| 20260503205600 | 12 | 233 | 4.8 | 17.7 | 0.00 | 0.00 | 0.00 | 32 | 1009.8 |
| 20260503205100 | 12 | 359 | 9.7 | 22.5 | 0.00 | 0.00 | 0.00 | 32 | 1010.0 |
| 20260503204620 | 12 | 309 | 8.0 | 22.5 | 0.00 | 0.00 | 0.00 | 33 | 1010.0 |
| 20260503204057 | 12 | 287 | 8.0 | 20.9 | 0.00 | 0.00 | 0.00 | 33 | 1010.1 |
| 20260503203557 | 12 | 252 | 9.7 | 20.9 | 0.00 | 0.00 | 0.00 | 33 | 1010.1 |
| 20260503203101 | 12 | 300 | 6.4 | 22.5 | 0.00 | 0.00 | 0.00 | 34 | 1010.2 |
| 20260503202556 | 12 | 268 | 11.3 | 22.5 | 0.00 | 0.00 | 0.00 | 33 | 1010.2 |
| 20260503202058 | 12 | 283 | 6.4 | 12.9 | 0.00 | 0.00 | 0.00 | 36 | 1010.4 |
| 20260503201555 | 12 | 260 | 4.8 | 20.9 | 0.00 | 0.00 | 0.00 | 33 | 1010.4 |
| 20260503201054 | 12 | 259 | 11.3 | 20.9 | 0.00 | 0.00 | 0.00 | 33 | 1010.4 |
| 20260503200554 | 11 | 251 | 12.9 | 20.9 | 0.00 | 0.00 | 0.00 | 33 | 1010.6 |
| 20260503200053 | 11 | 274 | 11.3 | 22.5 | 0.00 | 0.00 | 0.00 | 35 | 1010.9 |
| 20260503195552 | 12 | 272 | 14.5 | 22.5 | 0.00 | 0.00 | 0.00 | 33 | 1010.9 |
| 20260503195051 | 12 | 263 | 9.7 | 22.5 | 0.00 | 0.00 | 0.00 | 32 | 1011.1 |
| 20260503194551 | 12 | 307 | 9.7 | 22.5 | 0.00 | 0.00 | 0.00 | 33 | 1011.1 |
| 20260503194050 | 12 | 262 | 9.7 | 22.5 | 0.00 | 0.00 | 0.00 | 33 | 1011.1 |
| 20260503193551 | 12 | 289 | 11.3 | 20.9 | 0.00 | 0.00 | 0.00 | 32 | 1011.2 |
| 20260503193056 | 12 | 273 | 6.4 | 20.9 | 0.00 | 0.00 | 0.00 | 35 | 1011.2 |
| 20260503192549 | 12 | 295 | 8.0 | 19.3 | 0.00 | 0.00 | 0.00 | 34 | 1011.3 |
| 20260503192048 | 11 | 263 | 8.0 | 20.9 | 0.00 | 0.00 | 0.00 | 35 | 1011.4 |
| 20260503191606 | 11 | 248 | 9.7 | 20.9 | 0.00 | 0.00 | 0.00 | 35 | 1011.5 |
| 20260503191046 | 11 | 294 | 11.3 | 25.7 | 0.00 | 0.00 | 0.00 | 33 | 1011.7 |
| 20260503190546 | 11 | 322 | 14.5 | 25.7 | 0.00 | 0.00 | 0.00 | 34 | 1011.7 |
| 20260503190045 | 11 | 257 | 11.3 | 29.0 | 0.00 | 0.00 | 0.00 | 35 | 1011.7 |
| 20260503185544 | 12 | 238 | 12.9 | 29.0 | 0.00 | 0.00 | 0.00 | 34 | 1011.7 |
| 20260503185044 | 11 | 256 | 14.5 | 29.0 | 0.00 | 0.00 | 0.00 | 33 | 1012.1 |
| 20260503184543 | 11 | 245 | 12.9 | 27.4 | 0.00 | 0.00 | 0.00 | 35 | 1012.0 |
| 20260503184046 | 11 | 261 | 14.5 | 27.4 | 0.00 | 0.00 | 0.00 | 35 | 1011.9 |
| 20260503183541 | 11 | 309 | 11.3 | 24.1 | 0.00 | 0.00 | 0.00 | 34 | 1012.2 |
| 20260503183041 | 11 | 280 | 11.3 | 30.6 | 0.00 | 0.00 | 0.00 | 32 | 1012.3 |
| 20260503182541 | 11 | 239 | 16.1 | 24.1 | 0.00 | 0.00 | 0.00 | 32 | 1012.3 |
| 20260503182043 | 11 | 293 | 9.7 | 22.5 | 0.00 | 0.00 | 0.00 | 33 | 1012.4 |
| 20260503181640 | 11 | 252 | 12.9 | 25.7 | 0.00 | 0.00 | 0.00 | 34 | 1012.4 |
| 20260503181039 | 11 | 236 | 12.9 | 25.7 | 0.00 | 0.00 | 0.00 | 32 | 1012.5 |
| 20260503180539 | 11 | 279 | 11.3 | 24.1 | 0.00 | 0.00 | 0.00 | 31 | 1012.4 |
| 20260503180042 | 11 | 274 | 12.9 | 24.1 | 0.00 | 0.00 | 0.00 | 31 | 1012.5 |
| 20260503175537 | 11 | 276 | 9.7 | 24.1 | 0.00 | 0.00 | 0.00 | 33 | 1012.4 |
| 20260503175037 | 11 | 317 | 11.3 | 22.5 | 0.00 | 0.00 | 0.00 | 34 | 1012.5 |
| 20260503174545 | 11 | 242 | 12.9 | 20.9 | 0.00 | 0.00 | 0.00 | 37 | 1012.6 |
| 20260503174036 | 11 | 274 | 12.9 | 20.9 | 0.00 | 0.00 | 0.00 | 33 | 1012.7 |
| 20260503173536 | 11 | 283 | 9.7 | 20.9 | 0.00 | 0.00 | 0.00 | 36 | 1012.6 |
| 20260503173037 | 11 | 290 | 12.9 | 22.5 | 0.00 | 0.00 | 0.00 | 35 | 1012.6 |
| 20260503172535 | 11 | 252 | 16.1 | 22.5 | 0.00 | 0.00 | 0.00 | 32 | 1012.5 |
| 20260503172034 | 11 | 297 | 12.9 | 25.7 | 0.00 | 0.00 | 0.00 | 34 | 1012.6 |
| 20260503171533 | 11 | 279 | 11.3 | 27.4 | 0.00 | 0.00 | 0.00 | 34 | 1012.5 |
| 20260503171034 | 11 | 257 | 11.3 | 22.5 | 0.00 | 0.00 | 0.00 | 36 | 1012.6 |
| 20260503170533 | 11 | 266 | 11.3 | 25.7 | 0.00 | 0.00 | 0.00 | 37 | 1012.7 |
| 20260503150514 | 8 | 259 | 9.7 | 19.3 | 0.00 | 0.00 | 0.00 | 44 | 1014.2 |
| 20260503150115 | 8 | 300 | 8.0 | 19.3 | 0.00 | 0.00 | 0.00 | 44 | 1014.1 |
| 20260503131059 | 6 | 295 | 8.0 | 16.1 | 0.00 | 0.00 | 0.00 | 45 | 1015.0 |
| 20260503130558 | 6 | 302 | 8.0 | 14.5 | 0.00 | 0.00 | 0.00 | 48 | 1015.0 |
| 20260503110542 | 2 | 252 | 6.4 | 12.9 | 0.00 | 0.00 | 0.00 | 60 | 1014.5 |
| 20260503081534 | 1 | 255 | 4.8 | 11.3 | 0.00 | 0.00 | 0.00 | 65 | 1014.5 |
| 20260503081026 | 1 | 237 | 4.8 | 9.7 | 0.00 | 0.00 | 0.00 | 65 | 1014.5 |
| 20260503080525 | 1 | 230 | 4.8 | 9.7 | 0.00 | 0.00 | 0.00 | 64 | 1014.4 |
| 20260503072518 | 2 | 242 | 3.2 | 8.0 | 0.00 | 0.00 | 0.00 | 64 | 1014.4 |
| 20260503072017 | 2 | 234 | 3.2 | 6.4 | 0.00 | 0.00 | 0.00 | 63 | 1014.4 |
| 20260503071516 | 2 | 233 | 1.6 | 8.0 | 0.00 | 0.00 | 0.00 | 63 | 1014.5 |
| 20260503071015 | 2 | 226 | 3.2 | 9.7 | 0.00 | 0.00 | 0.00 | 63 | 1014.5 |
| 20260503070518 | 2 | 229 | 4.8 | 9.7 | 0.00 | 0.00 | 0.00 | 63 | 1014.4 |
| 20260503055004 | 2 | 233 | 6.4 | 12.9 | 0.00 | 0.00 | 0.00 | 61 | 1014.6 |
| 20260503054504 | 2 | 271 | 6.4 | 14.5 | 0.00 | 0.00 | 0.00 | 61 | 1014.6 |
| 20260503054006 | 2 | 271 | 6.4 | 14.5 | 0.00 | 0.00 | 0.00 | 61 | 1014.7 |
| 20260503053502 | 3 | 262 | 4.8 | 11.3 | 0.00 | 0.00 | 0.00 | 61 | 1014.8 |
| 20260503053002 | 3 | 245 | 4.8 | 9.7 | 0.00 | 0.00 | 0.00 | 60 | 1014.7 |
| 20260503052600 | 3 | 226 | 4.8 | 11.3 | 0.00 | 0.00 | 0.00 | 60 | 1014.7 |
| 20260503052100 | 3 | 264 | 6.4 | 11.3 | 0.00 | 0.00 | 0.00 | 60 | 1014.8 |
| 20260503051558 | 3 | 244 | 4.8 | 11.3 | 0.00 | 0.00 | 0.00 | 60 | 1014.9 |
| 20260503051100 | 3 | 265 | 4.8 | 12.9 | 0.00 | 0.00 | 0.00 | 60 | 1014.9 |
| 20260503050558 | 3 | 256 | 4.8 | 12.9 | 0.00 | 0.00 | 0.00 | 60 | 1015.1 |
| 20260503050057 | 3 | 242 | 4.8 | 9.7 | 0.00 | 0.00 | 0.00 | 60 | 1015.0 |